GEFSCGP_con_prob3kmehi_114.txt.gz
EHI
0 0 0 0 0 0 0 0 0 0 0 1 4 12 20 24 22 19 20 26 31 32 29 28 30 34 35 34 32 31 28 27 28 27 25 22 16 11 7 4 3 3 3 3
0 0 0 0 0 0 0 0 0 0 1 2 6 12 16 18 17 15 17 20 25 27 28 28 29 32 33 32 30 29 27 26 26 25 24 21 15 9 6 4 3 3 3 3
0 0 0 0 0 0 0 0 0 0 1 2 5 8 10 10 10 11 13 16 19 24 27 27 28 29 30 28 26 25 25 24 23 23 23 19 14 9 5 3 3 3 3 3
0 0 0 0 0 0 0 0 0 0 0 1 2 3 3 4 5 8 12 15 19 24 25 25 25 26 26 25 23 23 21 20 20 20 20 18 13 9 5 4 3 3 3 3
0 0 0 0 0 0 0 0 0 0 0 0 0 0 1 2 2 3 9 15 20 24 23 21 21 21 23 24 23 20 18 17 17 15 14 13 10 7 5 4 3 2 3 3
0 0 0 0 0 0 0 0 0 0 0 0 0 0 1 1 1 1 5 12 17 20 21 19 17 17 20 23 21 16 14 14 14 12 9 7 6 5 4 3 2 1 1 2
0 0 0 0 0 0 0 0 0 0 0 0 0 0 0 0 0 0 3 8 13 17 19 18 16 16 19 21 17 13 11 12 13 11 7 4 4 4 3 2 1 0 0 1
0 0 0 0 0 0 0 0 0 0 0 0 0 0 0 0 0 0 1 6 11 16 18 17 16 17 19 19 16 13 11 11 12 10 7 4 4 4 3 2 1 0 0 0
0 0 0 0 0 0 0 0 0 0 0 0 0 0 0 0 0 0 1 6 12 16 18 17 16 17 18 18 16 13 10 10 10 9 7 5 4 3 2 1 0 0 0 0
0 0 0 0 0 0 0 0 0 0 0 0 0 0 0 0 0 0 2 6 11 14 16 17 16 16 17 17 17 14 10 9 8 7 7 6 4 3 2 1 0 0 0 0
0 0 0 0 0 0 0 0 0 0 0 0 0 0 0 0 0 0 1 4 7 11 14 17 18 17 15 17 20 17 11 8 7 7 6 6 5 4 2 1 0 0 0 0
0 0 0 0 0 0 0 0 0 0 0 0 0 0 0 0 0 0 0 1 4 8 12 17 19 17 15 18 22 20 13 8 7 7 6 6 6 4 3 1 1 0 0 0
0 0 0 0 0 0 0 0 0 0 0 0 0 0 1 1 0 0 1 1 3 6 10 16 19 18 17 21 24 23 17 12 9 8 7 7 7 6 4 3 2 1 0 0
0 0 0 0 0 0 0 0 0 0 0 0 0 0 1 1 0 1 2 4 5 7 11 17 19 18 18 21 25 25 21 16 12 10 9 9 9 8 7 6 4 2 0 0
0 0 0 0 0 0 0 0 0 0 0 0 0 1 1 1 1 3 6 9 10 10 14 18 19 17 17 19 22 24 22 19 16 13 11 10 10 10 8 6 5 2 1 1
0 0 0 0 0 0 0 0 0 0 0 1 1 1 2 3 3 5 9 13 13 12 13 16 17 16 16 18 20 23 24 22 20 16 13 11 11 10 8 7 6 3 1 0
0 0 0 0 0 0 0 0 1 1 1 2 2 2 3 4 4 5 8 12 12 11 10 11 12 12 12 13 16 20 23 24 22 19 16 14 12 10 10 9 7 4 1 0
0 0 0 0 0 0 0 0 1 2 2 2 2 4 6 8 8 7 7 9 11 11 11 9 8 7 7 7 9 14 20 23 22 21 20 16 13 11 10 9 8 5 2 1
0 0 0 0 0 0 0 0 1 1 2 3 5 8 12 14 14 11 9 10 12 14 13 9 6 4 4 3 4 9 15 20 22 22 20 18 14 10 8 7 6 4 4 4
0 0 0 0 0 0 0 0 0 1 2 3 7 13 16 15 13 11 9 11 14 14 12 7 4 2 2 2 4 8 11 15 17 16 16 15 13 10 6 4 2 2 4 4
0 0 0 0 0 0 0 0 0 0 1 4 8 12 13 11 9 8 8 10 11 10 7 4 3 2 1 2 4 6 8 8 7 7 7 8 9 7 4 2 0 0 1 2
0 0 0 0 0 0 0 0 0 0 2 5 7 8 10 9 8 8 7 6 6 5 3 2 2 2 1 2 3 4 4 3 2 1 2 4 4 3 2 2 0 0 0 0
0 0 0 0 0 0 0 1 2 3 5 6 6 6 9 9 8 5 4 3 3 2 1 1 1 1 1 2 3 3 3 2 1 1 2 2 1 0 1 1 0 0 0 0
0 0 0 0 0 0 1 3 4 5 7 7 6 5 6 6 4 2 1 1 1 1 1 1 0 0 1 2 3 2 1 1 0 1 1 1 0 0 0 0 0 0 0 0
0 0 0 0 0 0 0 2 3 4 5 6 5 4 3 2 1 2 2 2 1 1 1 1 0 0 1 2 1 1 0 0 0 0 0 0 0 0 0 0 0 0 0 0
0 0 0 0 0 0 0 0 1 1 2 4 4 3 2 1 1 1 1 1 1 1 1 1 0 0 1 1 0 0 0 0 0 0 0 0 0 0 0 0 0 0 0 0

GEFSCGP_con_prob3kmehi_120.txt.gz
EHI
0 0 0 0 0 0 0 0 0 0 0 0 1 5 9 9 9 10 11 15 19 18 15 13 16 17 15 14 15 17 17 15 11 6 3 1 2 1 0 0 0 0 0 0
0 0 0 0 0 0 0 0 0 0 0 0 1 3 7 7 6 7 9 11 15 16 13 13 15 16 15 15 16 17 15 12 9 7 5 3 2 1 0 0 0 0 0 0
0 0 0 0 0 0 0 0 0 0 0 0 0 1 4 5 5 4 5 6 7 9 9 10 11 12 13 15 18 17 14 10 8 7 7 6 4 1 0 0 0 0 0 0
0 0 0 0 0 0 0 0 0 0 0 0 0 0 1 3 4 3 3 3 3 3 4 5 6 9 11 14 17 18 15 11 9 8 8 8 6 2 0 0 0 0 0 0
0 0 0 0 0 0 0 0 0 0 0 0 0 0 0 1 2 2 2 3 3 2 2 2 4 7 10 13 15 17 15 12 10 10 10 9 7 3 0 0 0 0 0 0
0 0 0 0 0 0 0 0 0 0 0 0 0 0 0 0 0 0 1 2 2 2 2 2 4 7 9 11 13 14 14 12 12 13 12 9 6 4 2 0 0 0 0 0
0 0 0 0 0 0 0 0 0 0 0 0 0 0 0 0 0 0 0 1 1 1 2 2 4 5 7 9 11 12 11 11 12 13 12 8 6 5 4 1 0 0 0 0
0 0 0 0 0 0 0 0 0 0 0 0 0 0 0 0 0 0 0 0 0 0 0 1 2 3 4 7 10 11 10 10 10 11 10 8 6 6 4 2 0 0 0 0
0 0 0 0 0 0 0 0 0 0 0 0 0 0 0 0 0 0 0 0 0 0 0 0 0 1 3 5 9 10 10 9 9 9 9 7 6 5 3 1 0 0 0 0
0 0 0 0 0 0 0 0 0 0 0 0 0 0 0 0 0 0 0 0 0 0 0 0 0 1 2 4 6 9 10 9 9 9 9 8 5 4 3 1 0 0 0 0
0 0 0 0 0 0 0 0 0 0 0 0 0 0 0 0 0 0 0 0 0 0 0 0 0 0 1 3 5 7 9 10 10 10 9 8 5 3 2 1 0 0 0 0
0 0 0 0 0 0 0 0 0 0 0 0 0 0 0 0 0 0 0 0 0 0 0 0 0 0 1 3 4 6 8 9 9 9 8 7 4 3 2 1 0 0 0 0
0 0 0 0 0 0 0 0 0 0 0 0 0 0 0 0 0 0 0 0 0 0 0 0 0 0 1 3 5 5 5 6 7 7 7 6 4 2 1 1 1 0 0 0
0 0 0 0 0 0 0 0 0 0 0 0 0 0 0 0 0 0 0 0 0 0 0 0 0 0 1 3 5 4 3 4 5 6 6 5 4 3 2 2 2 1 0 0
0 0 0 0 0 0 0 0 0 0 0 0 0 0 0 0 0 0 0 0 0 0 0 0 0 0 1 3 4 4 3 4 5 6 5 4 3 3 3 3 2 1 0 0
0 0 0 0 0 0 0 0 0 0 0 0 0 0 0 0 0 0 0 0 0 0 0 0 0 1 2 3 4 3 4 5 5 4 4 3 3 3 4 4 3 2 1 0
0 0 0 0 0 0 0 0 0 0 0 0 0 0 0 0 0 1 1 0 0 0 0 0 0 1 3 4 4 3 3 4 3 2 2 3 4 4 5 6 5 3 1 1
0 0 0 0 0 0 0 0 0 0 0 0 0 0 1 2 3 3 3 2 2 1 1 1 0 1 2 4 5 4 3 3 1 0 1 3 4 4 5 5 5 3 1 0
0 0 0 0 0 0 0 0 0 0 0 0 0 1 2 4 5 6 6 5 5 4 2 1 0 0 0 2 5 5 3 2 1 0 0 2 3 3 3 2 3 2 1 0
0 0 0 0 0 0 0 0 0 1 0 0 0 1 2 3 5 6 6 6 5 4 2 1 0 0 0 1 3 4 2 1 0 0 1 2 2 1 1 1 1 1 0 0
0 0 0 0 0 0 0 0 0 0 0 0 0 0 1 3 4 5 5 4 2 1 0 0 0 0 0 0 1 1 1 0 0 0 1 2 1 0 0 1 0 0 0 0
0 0 0 0 0 0 0 0 0 0 0 0 0 1 2 4 5 4 2 1 0 0 0 0 0 0 0 0 0 0 0 0 0 0 1 1 0 0 0 0 0 0 0 0
0 0 0 0 0 0 0 0 0 0 0 0 1 2 4 4 3 2 0 0 0 0 0 0 0 0 0 0 0 0 0 0 0 0 0 0 0 0 0 0 0 0 0 0
0 0 0 0 0 0 0 0 0 0 0 0 1 2 3 2 1 0 0 0 0 0 0 0 0 0 0 0 0 0 0 0 0 0 0 0 0 0 0 0 0 0 0 0
0 0 0 0 0 0 0 0 0 0 0 0 0 1 1 1 0 0 0 0 0 0 0 0 0 0 0 0 0 0 0 0 0 0 0 0 0 0 0 0 0 0 0 0
0 0 0 0 0 0 0 0 0 0 0 0 0 0 0 0 0 0 0 0 0 0 0 0 0 0 0 0 0 0 0 0 0 0 0 0 0 0 0 0 0 0 0 0

GEFSCGP_con_prob3kmehi_126.txt.gz
EHI
0 0 0 0 0 0 0 0 0 0 0 0 0 0 1 4 10 17 22 27 29 30 33 37 38 38 36 33 30 26 23 23 26 30 31 26 20 14 11 10 7 5 5 6
0 0 0 0 0 0 0 0 0 0 0 0 0 0 1 4 8 12 17 22 26 28 34 39 40 38 34 29 27 24 22 22 24 28 30 27 21 16 12 10 8 5 4 5
0 0 0 0 0 0 0 0 0 0 0 0 0 0 2 4 4 6 10 15 20 24 30 37 39 34 27 23 23 22 22 23 24 24 23 22 20 17 14 10 9 7 4 4
0 0 0 0 0 0 0 0 0 0 0 0 0 0 1 3 4 6 8 10 14 19 23 29 31 26 20 17 17 18 21 24 26 23 18 17 17 16 13 12 11 10 7 5
0 0 0 0 0 0 0 0 0 0 0 0 0 0 1 1 3 7 9 9 10 14 17 21 22 18 14 12 12 14 16 19 24 24 20 17 15 13 12 13 14 12 9 7
0 0 0 0 0 0 0 0 0 0 0 0 0 0 0 0 1 5 8 9 10 12 15 16 14 11 10 9 8 10 11 13 17 21 19 15 12 9 10 13 14 13 10 9
0 0 0 0 0 0 0 0 0 0 0 0 0 0 0 0 0 2 5 7 9 13 15 14 11 9 8 6 6 9 11 11 13 15 15 13 10 8 9 11 13 12 10 9
0 0 0 0 0 0 0 0 0 0 0 0 0 0 0 0 0 1 2 4 9 14 17 15 11 10 9 8 7 9 12 12 11 12 13 13 11 9 9 10 11 11 9 8
0 0 0 0 0 0 0 0 0 0 0 0 0 0 0 0 0 1 2 4 9 15 17 15 12 10 10 9 8 10 11 10 9 10 12 13 12 11 10 10 9 9 8 8
0 0 0 0 0 0 0 0 0 0 0 0 0 0 0 0 1 3 4 6 10 14 15 13 11 11 10 8 8 8 8 7 5 7 9 11 12 11 9 9 8 9 9 9
0 0 0 0 0 0 0 0 0 0 0 0 0 0 0 0 2 4 4 5 8 10 11 10 10 10 8 6 5 6 6 5 4 5 8 10 10 10 9 8 9 9 9 10
0 0 0 0 0 0 0 0 0 0 0 0 0 0 0 0 1 2 2 3 6 9 9 10 12 12 10 6 4 4 5 5 5 6 7 9 9 10 9 10 11 10 9 10
0 0 0 0 0 0 0 0 0 0 0 0 0 0 1 0 0 0 1 4 9 11 12 14 16 16 13 9 6 5 4 4 5 6 7 9 10 11 11 12 13 12 10 10
0 0 0 0 0 0 0 0 0 0 0 0 0 0 1 1 0 0 2 8 12 14 16 18 21 20 17 14 11 9 7 6 6 6 8 10 11 11 12 13 14 13 10 10
1 1 0 0 0 0 0 0 0 0 0 0 0 1 3 3 1 0 2 8 14 15 18 22 25 25 23 19 16 13 13 13 13 11 11 12 12 12 13 14 16 15 13 13
2 1 0 0 0 0 0 0 0 0 0 0 1 3 6 5 2 1 4 9 14 17 21 26 29 30 30 27 22 19 20 22 22 19 17 15 15 14 14 15 17 18 19 18
1 1 0 0 0 0 0 0 0 0 0 0 2 5 7 6 4 5 7 11 16 20 24 29 31 32 32 30 26 23 23 25 26 24 21 20 19 17 16 15 17 21 23 22
1 0 0 0 0 0 0 0 1 1 1 1 3 6 7 6 6 7 10 14 19 23 26 29 30 29 29 28 25 24 23 23 23 21 20 21 21 19 16 15 17 22 26 26
1 0 0 0 0 0 0 0 1 2 2 2 4 6 6 5 5 6 10 16 21 24 27 28 28 27 27 26 26 26 25 23 20 19 17 17 17 18 17 16 18 23 28 30
1 0 0 0 0 0 0 0 1 2 2 2 4 5 4 4 5 6 9 14 18 20 23 25 26 28 29 30 30 30 28 24 21 19 17 15 15 16 17 18 20 23 26 27
0 0 0 0 0 0 0 0 0 1 2 4 4 4 4 5 8 7 8 10 13 15 18 20 24 28 30 29 29 27 25 21 19 18 16 16 15 15 15 16 18 20 19 17
0 0 0 0 0 1 1 0 0 2 4 5 4 3 5 6 6 7 8 10 11 14 15 18 23 27 27 26 25 24 21 18 16 16 16 16 15 11 9 11 13 14 11 7
0 0 0 0 0 1 1 0 0 1 3 3 2 2 4 4 4 6 9 12 13 15 16 18 21 23 22 21 21 20 18 15 13 14 15 13 10 7 6 7 9 9 6 3
0 0 0 0 0 1 1 1 1 1 1 1 0 0 1 2 2 4 7 9 11 13 14 15 15 15 14 12 13 14 13 10 10 11 10 6 4 4 4 4 4 4 3 3
0 0 0 0 0 0 0 1 2 2 2 1 0 0 0 0 0 1 2 4 5 6 7 8 8 7 5 4 6 8 8 8 8 8 5 3 2 3 3 1 1 1 1 2
0 0 0 0 0 0 0 1 1 2 2 1 1 1 1 0 0 0 0 0 1 2 3 3 3 2 1 1 4 6 7 9 9 7 5 3 2 3 3 1 0 0 0 1

GEFSCGP_con_prob3kmehi_132.txt.gz
EHI
0 0 0 0 0 0 0 0 0 0 0 0 0 1 6 12 14 16 24 38 55 67 74 73 68 65 67 71 71 67 63 60 56 49 43 41 44 47 46 41 36 32 27 25
0 0 0 0 0 0 0 0 0 0 0 0 0 1 5 12 15 17 25 37 52 65 73 74 69 65 67 70 69 65 61 59 54 47 41 38 41 43 40 38 33 28 25 24
0 0 0 0 0 0 0 0 0 0 0 0 0 1 6 12 14 16 22 31 43 56 69 72 67 65 65 67 65 61 58 54 49 44 39 36 37 36 35 35 32 27 23 22
0 0 0 0 0 0 0 0 0 0 0 0 0 2 7 13 13 13 19 26 35 48 62 67 66 64 63 62 60 56 53 48 44 41 38 33 32 31 32 36 35 29 23 21
0 0 0 0 0 0 0 0 0 0 0 0 0 2 6 11 10 10 17 26 34 44 56 63 65 62 59 56 53 49 45 41 39 37 33 29 28 28 30 34 36 30 23 20
0 0 0 0 0 0 0 0 0 0 0 0 0 1 4 6 5 6 15 25 34 42 53 62 63 59 55 51 47 44 40 36 34 31 26 24 26 26 27 31 34 30 23 17
0 0 0 0 0 0 0 0 0 0 0 0 0 0 1 2 1 4 12 22 33 43 53 60 60 55 50 46 43 40 37 34 30 25 20 18 20 22 24 27 30 27 19 14
0 0 0 0 0 0 0 0 0 0 0 0 0 0 1 1 1 3 9 18 30 40 49 54 55 50 44 39 36 35 35 31 26 21 17 14 15 17 20 23 26 22 15 10
0 0 0 0 0 0 0 0 0 0 0 0 0 0 1 1 2 3 8 16 26 35 42 47 48 44 40 35 32 33 33 30 25 21 17 14 15 17 19 20 21 20 16 13
0 0 0 0 0 0 0 0 0 0 0 0 0 0 1 1 2 4 9 17 25 32 39 45 46 43 40 36 34 34 33 30 27 23 18 16 17 20 20 19 19 19 19 19
0 0 0 0 0 0 0 0 0 0 0 0 0 0 0 1 3 6 9 15 23 31 41 48 48 45 41 37 33 32 29 26 25 23 19 17 18 20 21 21 20 19 22 26
0 0 0 0 0 0 0 0 0 0 0 0 0 0 1 3 4 6 8 12 20 31 43 50 51 48 43 38 33 27 24 21 20 20 18 17 18 19 20 21 21 20 23 26
0 0 0 0 0 0 0 0 0 0 0 0 0 1 3 4 5 6 8 12 21 33 44 51 55 54 51 45 37 29 23 20 19 20 19 18 18 20 21 21 22 22 22 23
0 0 0 0 0 0 0 0 0 0 0 0 0 1 3 6 6 6 10 16 24 36 47 54 60 63 62 55 44 34 27 24 24 24 23 23 22 22 22 22 23 23 21 20
0 0 0 0 0 0 0 0 0 0 0 0 0 2 6 9 10 11 16 21 28 38 49 58 65 70 69 60 47 38 32 30 30 29 27 27 26 24 22 21 23 24 23 20
0 0 0 0 0 0 0 0 0 0 0 0 1 5 10 14 18 22 26 29 33 39 48 61 71 75 71 60 49 42 38 35 34 32 30 28 27 24 20 19 22 26 28 27
1 1 0 0 0 0 0 0 0 0 1 2 4 9 16 20 26 33 37 41 43 44 50 63 73 74 69 59 53 48 43 38 35 32 30 29 28 26 23 23 26 30 33 34
2 3 1 0 0 0 0 1 1 1 2 5 10 15 21 24 29 37 44 48 52 52 56 64 70 69 64 59 55 52 46 40 36 33 31 30 31 31 31 32 32 34 35 35
3 3 2 0 0 0 1 3 4 3 4 8 15 20 22 21 24 33 41 47 52 55 59 65 68 66 63 60 57 53 46 40 37 35 33 32 32 33 34 36 37 37 36 35
2 3 1 0 0 0 0 2 3 4 6 11 16 19 18 16 17 25 32 37 41 48 55 62 66 67 66 63 60 55 46 40 37 36 35 34 34 33 32 34 37 38 36 33
1 1 0 0 0 0 0 2 5 8 11 15 17 17 15 14 15 18 23 27 32 40 49 57 62 64 63 62 60 55 48 41 38 37 37 36 35 32 29 31 34 34 30 26
0 0 1 1 1 1 2 4 8 13 17 19 18 16 15 14 15 17 19 21 25 32 40 48 53 55 55 55 54 50 45 41 39 38 37 36 34 29 26 26 26 25 22 18
0 1 2 3 2 2 3 4 7 11 14 15 14 12 12 13 15 17 17 17 18 22 29 35 39 41 43 46 46 42 37 36 35 34 34 32 29 25 22 20 17 15 12 10
1 1 2 2 2 1 1 2 4 6 9 10 10 8 8 10 13 15 15 14 13 15 20 24 26 26 28 31 32 30 28 27 26 27 27 26 23 20 17 13 9 7 5 4
0 0 0 1 1 1 1 1 3 6 8 8 8 7 7 8 9 11 13 13 12 13 14 15 15 14 14 15 16 18 19 19 18 18 18 17 15 13 11 7 4 3 2 2
0 0 0 1 2 2 2 3 5 7 8 8 7 7 7 6 7 7 9 11 11 11 10 10 9 8 8 8 9 11 12 14 15 14 12 11 10 8 6 3 1 1 1 1

GEFSCGP_con_prob3kmehi_138.txt.gz
EHI
0 0 0 0 0 0 0 0 0 0 0 0 2 5 8 16 25 33 42 53 61 60 54 53 56 58 60 61 62 64 61 53 42 35 31 28 26 23 18 11 7 6 5 6
0 0 0 0 0 0 0 0 0 0 0 0 2 5 8 14 21 26 33 44 54 57 55 55 58 62 63 62 62 62 58 48 38 30 26 23 21 18 14 9 6 6 6 6
0 0 0 0 0 0 0 0 0 0 0 0 2 4 7 11 16 19 22 30 43 52 54 56 60 62 61 59 59 58 52 43 33 26 22 19 16 14 11 8 7 7 6 5
0 0 0 0 0 0 0 0 0 0 0 0 0 2 5 9 13 14 15 22 36 46 50 52 56 56 55 53 54 52 47 40 31 25 21 18 15 12 9 7 6 7 6 5
0 0 0 0 0 0 0 0 0 0 0 0 0 0 2 5 9 10 12 19 32 42 46 47 49 49 48 49 49 47 42 36 30 25 21 17 13 8 6 6 5 5 5 4
0 0 0 0 0 0 0 0 0 0 0 0 0 0 0 1 4 7 11 17 28 37 42 45 46 45 44 46 46 42 37 32 28 24 21 17 11 6 5 6 6 4 3 2
0 0 0 0 0 0 0 0 0 0 0 0 0 0 0 0 2 5 9 16 25 34 40 42 42 42 41 41 41 38 34 29 26 23 22 17 10 6 6 8 7 5 3 2
0 0 0 0 0 0 0 0 0 0 0 0 0 0 0 0 0 2 7 14 23 33 38 36 36 38 38 38 37 34 29 25 23 22 20 17 12 8 7 7 7 7 5 4
0 0 0 0 0 0 0 0 0 0 0 0 0 0 0 0 0 2 6 11 18 27 32 29 28 31 32 33 33 28 23 21 20 18 17 16 14 11 8 6 7 7 6 5
0 0 0 0 0 0 0 0 0 0 0 0 0 0 0 0 0 2 4 7 11 19 24 22 20 21 24 26 25 21 18 17 16 15 15 15 14 12 9 7 6 6 5 4
0 0 0 0 0 0 0 0 0 0 0 0 0 0 0 0 0 1 2 3 7 13 18 17 14 15 18 20 19 17 17 16 16 14 14 14 14 13 11 8 6 5 4 4
0 0 0 0 0 0 0 0 0 0 0 0 0 0 0 0 0 0 1 2 5 10 15 15 13 15 18 19 18 17 16 15 14 13 12 12 12 12 11 9 6 5 5 5
0 0 0 0 0 0 0 0 0 0 0 0 0 0 0 1 2 1 1 2 5 10 16 18 18 19 19 18 17 15 14 13 12 11 11 11 11 11 10 8 7 6 6 5
0 0 0 0 0 0 0 0 0 0 0 0 0 0 0 1 3 4 5 6 9 11 16 21 24 23 20 15 12 12 11 11 11 11 11 11 11 10 9 8 7 6 6 5
0 0 0 0 0 0 0 1 1 1 1 0 1 3 4 5 7 9 11 13 14 13 15 22 26 24 19 13 10 9 10 10 12 12 13 12 12 11 9 8 7 6 6 4
0 0 0 0 0 0 0 1 2 2 1 1 2 4 7 10 12 15 18 17 15 14 17 21 24 23 20 16 11 9 9 11 13 13 14 14 12 11 9 8 7 7 6 5
0 0 0 0 0 0 0 1 2 2 1 1 3 5 9 13 15 18 19 17 15 16 20 24 24 22 21 20 14 9 9 11 12 13 13 13 12 10 9 9 8 7 6 5
0 0 0 0 0 0 0 0 2 3 2 3 5 8 9 11 14 15 15 15 15 15 20 26 25 23 21 20 16 11 9 11 11 11 12 12 11 10 9 9 9 8 6 5
0 0 0 0 0 0 0 1 2 4 4 5 7 9 8 7 10 12 12 12 13 12 15 20 24 23 21 19 17 12 10 10 11 11 11 11 10 10 9 7 7 6 4 3
0 0 0 0 0 0 1 2 2 2 3 3 5 6 5 4 5 8 9 10 10 10 11 15 19 20 19 19 17 13 11 11 10 9 9 9 9 8 7 6 5 3 2 1
0 0 0 0 0 0 2 3 1 1 1 1 1 2 3 4 5 6 7 6 6 7 10 14 16 15 15 16 15 12 10 8 7 7 6 6 6 6 6 5 5 3 1 0
0 0 0 0 0 0 1 1 0 1 1 1 0 1 3 5 6 6 5 4 5 8 11 14 14 12 10 10 10 8 6 5 4 4 4 4 4 4 4 4 4 3 1 0
0 0 0 0 0 0 0 0 0 1 2 1 0 1 3 4 4 3 4 5 6 9 11 11 10 8 6 5 4 3 3 2 3 3 3 3 3 3 3 3 3 2 1 0
0 0 0 0 0 0 1 0 0 1 1 1 0 0 1 1 1 1 2 4 6 6 7 6 5 3 2 1 1 1 1 1 1 2 2 2 2 2 2 2 2 1 0 0
0 0 0 0 0 0 0 0 0 0 0 0 0 0 0 0 0 0 1 2 3 2 2 1 1 0 0 0 0 0 0 0 0 1 1 1 1 1 1 1 1 0 0 0
0 0 0 0 0 0 0 0 0 0 0 0 0 0 0 0 0 0 0 1 1 1 0 0 0 0 0 0 0 0 0 0 0 0 0 0 0 0 0 0 0 0 0 0

GEFSCGP_con_prob3kmehi_144.txt.gz
EHI
0 0 0 0 0 0 0 0 0 0 0 0 0 0 1 6 12 19 25 28 29 30 31 34 37 39 38 35 31 27 22 19 18 16 12 6 4 4 5 4 2 1 0 0
0 0 0 0 0 0 0 0 0 0 0 0 0 0 1 4 9 14 20 23 26 28 31 34 38 41 42 40 34 29 25 22 20 17 13 7 4 4 4 4 2 1 0 0
0 0 0 0 0 0 0 0 0 0 0 0 0 0 0 1 3 7 11 15 20 25 28 32 36 39 42 41 37 32 28 26 21 17 12 8 5 5 4 3 2 1 0 0
0 0 0 0 0 0 0 0 0 0 0 0 0 0 0 0 0 2 5 10 16 20 23 28 32 34 35 36 35 33 31 27 20 15 12 10 9 7 4 2 1 1 0 0
0 0 0 0 0 0 0 0 0 0 0 0 0 0 0 0 0 1 3 7 12 17 21 25 28 29 29 30 31 32 31 25 18 13 12 12 12 9 5 2 1 0 0 0
0 0 0 0 0 0 0 0 0 0 0 0 0 0 0 0 0 0 2 5 9 14 19 22 23 23 23 25 28 30 27 22 17 13 11 12 12 10 6 3 1 0 0 0
0 0 0 0 0 0 0 0 0 0 0 0 0 0 0 0 0 0 1 3 7 12 16 18 18 17 19 21 26 27 24 19 17 15 12 10 10 9 7 5 2 0 0 0
0 0 0 0 0 0 0 0 0 0 0 0 0 0 0 0 0 0 0 2 5 9 11 13 13 13 15 19 23 25 23 20 19 17 14 11 9 8 6 5 3 1 0 0
0 0 0 0 0 0 0 0 0 0 0 0 0 0 0 0 0 0 0 1 3 5 6 7 8 10 12 16 20 22 22 21 21 20 17 13 10 8 6 5 3 1 0 0
0 0 0 0 0 0 0 0 0 0 0 0 0 0 0 0 0 0 0 0 1 2 2 3 5 7 9 12 15 18 20 19 19 19 17 14 12 11 8 6 3 1 0 0
0 0 0 0 0 0 0 0 0 0 0 0 0 0 0 0 0 0 0 0 0 0 0 0 2 4 6 8 10 12 14 14 14 13 12 12 12 12 10 7 4 1 0 0
0 0 0 0 0 0 0 0 0 0 0 0 0 0 0 0 0 0 1 0 0 0 0 0 0 2 4 5 6 7 8 9 10 9 8 7 9 11 11 8 5 3 1 1
0 0 0 0 0 0 0 0 0 0 0 0 0 0 0 0 0 0 0 0 0 0 0 0 1 1 2 3 4 4 4 5 7 7 6 5 5 7 9 8 6 5 3 2
0 0 0 0 0 0 0 0 0 0 0 0 0 0 0 0 1 1 0 0 1 1 0 1 3 2 2 2 2 1 1 2 4 5 5 4 3 4 6 6 6 5 4 4
0 0 0 0 0 0 0 0 0 0 0 0 0 0 0 0 1 1 1 1 3 4 2 1 2 3 2 1 1 1 0 1 1 3 4 4 3 3 3 4 4 4 4 4
0 0 0 0 0 0 0 0 0 0 0 0 0 0 0 1 2 2 1 2 4 5 3 2 2 3 2 1 0 1 1 0 0 1 2 3 3 3 4 4 4 4 4 4
0 0 0 0 0 0 0 0 0 0 1 1 0 1 2 4 4 4 3 3 4 5 4 3 4 5 4 2 1 0 0 0 0 1 2 3 4 4 5 5 4 4 3 3
0 0 0 0 0 0 0 0 0 0 1 1 1 2 3 4 4 4 4 4 6 6 5 4 5 5 3 2 2 1 0 0 0 0 1 2 3 4 4 4 4 3 2 1
0 0 0 0 0 0 0 0 0 0 1 1 1 2 2 2 2 2 2 3 4 5 4 3 3 2 1 1 2 2 1 1 1 1 0 1 3 3 3 3 3 1 1 0
0 0 0 0 0 0 0 0 0 0 0 0 1 1 1 1 1 0 0 1 1 3 3 1 1 0 0 0 1 1 1 1 2 1 0 1 3 3 3 3 2 1 0 0
0 0 0 0 0 0 0 0 0 0 0 0 0 0 1 1 1 0 0 0 0 1 1 1 0 0 0 0 0 0 0 1 1 1 0 1 3 3 2 1 1 1 1 1
0 0 0 0 0 0 0 0 0 0 0 0 0 0 0 0 0 0 0 0 0 0 0 0 0 0 0 0 0 0 0 0 0 0 0 0 1 2 1 1 1 2 2 2
0 0 0 0 0 0 0 0 0 0 0 0 0 0 0 0 0 0 0 0 0 0 0 0 0 0 0 0 0 0 0 0 0 0 0 1 1 2 2 2 3 3 3 3
0 0 0 0 0 0 0 0 0 1 0 0 0 0 0 0 0 0 0 0 0 0 0 0 0 0 0 0 0 0 0 0 0 0 0 1 2 3 3 2 2 2 2 2
0 0 0 0 0 0 0 0 0 0 0 0 0 0 0 0 0 0 0 0 0 0 0 0 0 0 0 0 0 0 0 0 0 0 0 1 2 2 1 1 1 1 1 1
0 0 0 0 0 0 0 0 0 0 0 0 0 0 0 0 0 0 0 0 0 0 0 0 0 0 0 0 0 0 0 0 0 0 0 0 1 1 0 0 0 0 0 0